Weather Roundup
Issued by NWS

Home | Current Version | Previous Version | Text Only | Print | Product List | Glossary On
Versions: 1 2 3 4 5 6 7 8 9 10 11 12 13 14 15 16 17 18 19 20 21 22 23 24 25 26 27 28 29 30 31 32 33 34 35 36 37 38 39 40 41 42 43 44 45 46 47 48 49 50
000
NZUS93 KARX 211510
HRRWXR

CURRENT HOURLY OBSERVATIONS ACROSS
MUCH OF THE UPPER MISSISSIPPI VALLEY
NATIONAL WEATHER SERVICE LA CROSSE WI
900 AM CST TUE NOV 21 2017


...SOUTHEAST MINNESOTA...


CITY           SKY/WX    TMP DP  RH WIND       PRES   REMARKS
ROCHESTER      CLOUDY    25  17  72 NW23G31   29.89R WCI  10
ROCHESTER/MAYO CLOUDY    26  16  65 W29G39    29.88R WCI   9
WINONA           N/A     32  19  59 NW14G28   29.88R WCI  22
AUSTIN         CLOUDY    25  14  63 NW21G33   29.93R WCI  10
ALBERT LEA     CLOUDY    25  12  58 NW17G29   29.96R WCI  11
DODGE CENTER   FLURRIES  25  16  68 NW22G29   29.90R WCI  10
PRESTON        CLOUDY    25  16  69 NW23G30   29.89R WCI  10
OWATONNA       CLOUDY    25  16  68 NW25G31   29.95R WCI   9
FARIBAULT      CLOUDY    25  14  63 NW21G29   29.96R WCI  10
$$

...ELSEWHERE IN MINNESOTA...


CITY           SKY/WX    TMP DP  RH WIND       PRES   REMARKS
MINNEAPOLIS    MOSUNNY   23  11  60 NW22G28   29.98R WCI   8
INTNL FALLS      N/A     14   6  70 NW16      29.95R WCI  -2
DULUTH         FLURRIES  19  10  68 NW15G24   29.83R WCI   5
RED WING       PTSUNNY   27   9  46 NW18G28   29.92R WCI  13
REDWOOD FALLS  PTSUNNY   22   9  57 NW22G37   30.08R WCI   6
MANKATO        CLOUDY    22  12  65 NW28G37   30.01R WCI   4
WORTHINGTON    PTSUNNY   19  10  68 NW26G36   30.09R WCI   1
FAIRMONT       CLOUDY    22  12  65 NW28G41   30.04R WCI   4
$$

...SOUTHWEST WISCONSIN...


CITY           SKY/WX    TMP DP  RH WIND       PRES   REMARKS
LA CROSSE      CLOUDY    32  16  51 NW25G32   29.85R WCI  19
PRAIRIE DU CHI CLOUDY    31  15  50 NW22G30   29.89R WCI  18
BOSCOBEL       CLOUDY    33  17  51 NW22G30   29.86R WCI  21
LONE ROCK      PTSUNNY   34  18  52 W23G36    29.81R WCI  22
PLATTEVILLE    CLOUDY    33  20  58 W18G30    29.82R WCI  22
FORT MC COY    CLOUDY    29  15  55 NW12G26   29.85R WCI  19
CAMP DOUGLAS   CLOUDY    30  12  47 NW18G29   29.81R WCI  18
MAUSTON-NEW LI CLOUDY    28  14  54 NW21G30   29.80R WCI  15
VIROQUA        CLOUDY    28  17  63 NW20G26   29.81R WCI  15
WIS DELLS      CLOUDY    32  17  53 NW17G35   29.77R WCI  21
$$

...ELSEWHERE IN WISCONSIN...


CITY           SKY/WX    TMP DP  RH WIND       PRES   REMARKS
MILWAUKEE      PTSUNNY   46  27  47 W12       29.69R
MADISON        CLOUDY    38  14  37 NW20G39   29.74R WCI  28
GREEN BAY      CLOUDY    36  25  64 W15       29.65R WCI  27
EAU CLAIRE     CLOUDY    26  12  55 NW20      29.85R WCI  12
BLACK RVR FLS  CLOUDY    29  12  48 W14       29.83R WCI  19
MEDFORD        FLURRIES  25  16  68 NW17G24   29.72R WCI  12
WAUSAU         CLOUDY    29  17  61 NW21G29   29.68R WCI  16
WIS RAPIDS     CLOUDY    29  16  58 NW17G29   29.76R WCI  17
MARSHFIELD     CLOUDY    27  14  58 NW21G33   29.74R WCI  13
RICE LAKE      CLOUDY    23  10  58 NW17G26   29.88R WCI   9
$$

...NORTHEAST IOWA...


CITY           SKY/WX    TMP DP  RH WIND       PRES   REMARKS
WATERLOO       CLOUDY    29  16  58 NW28G40   29.93R WCI  14
DUBUQUE        PTSUNNY   33  18  53 NW23G36   29.85R WCI  21
DECORAH        CLOUDY    27  16  63 NW15G26   29.88R WCI  15
MASON CITY     MOSUNNY   23  12  62 NW30G39   29.99R WCI   5
CHARLES CITY   PTSUNNY   27  14  59 NW23G33   29.94R WCI  12
OELWEIN        CLOUDY    28  18  64 NW35G44   29.91R WCI  12
$$

...ELSEWHERE IN IOWA...


CITY           SKY/WX    TMP DP  RH WIND       PRES   REMARKS
DES MOINES     CLOUDY    40  21  46 NW21G31   29.97R WCI  30
IOWA CITY      CLOUDY    40  21  46 NW13G23   29.93R WCI  32
FORT DODGE     SUNNY     25  13  60 NW12G29   30.05R WCI  14
MARSHALLTOWN   CLOUDY    34  20  56 NW24G35   29.96R WCI  21
CEDAR RAPIDS   CLOUDY    38  19  46 NW24G31   29.90R WCI  27
$$

...NORTHERN ILLINOIS...


CITY           SKY/WX    TMP DP  RH WIND       PRES   REMARKS
CHICAGO-OHARE  LGT RAIN  44  32  62 W14       29.74R
CHICAGO-MIDWAY CLOUDY    44  33  65 W14G24    29.75R
MOLINE         LGT RAIN  39  28  64 NW15G24   29.87R WCI  31
ROCKFORD       CLOUDY    42  19  39 NW21G28   29.80R
PEORIA         PTSUNNY   46  34  62 W7        29.85R
$$

NOTE: "FAIR" INDICATES FEW OR NO CLOUDS BELOW 12,000 FEET WITH NO
SIGNIFICANT WEATHER AND/OR OBSTRUCTIONS TO VISIBILITY. WIND
SPEEDS ARE IN MILES-PER-HOUR.




USA.gov is the U.S. government's official web portal to all federal, state and local government web resources and services.